Dosis diarias (en J/m2) de radiaci�n solar incidente en superficie.
Lugar de muestreo: Estaci�n de Fotobiolog�a Playa Uni�n (EFPU) en Playa Uni�n, Chubut, Argentina (-43.311263, -65.040969).
Datos aportados al Sistema Nacional de Datos del Mar.
Fecha,Dosis PAR,DosisUV-A,DosisUV-B
2011-01-02,9403891.7,1440966.4,39792.8
2011-01-03,8817983.4,1328106.9,34878.3
2011-01-04,8451153.3,1314042.4,37306.9
2011-01-05,6621480.4,1077936.5,31626.3
2011-01-06,5359953.3,899052.0,26640.8
2011-01-07,9364141.8,1456920.5,41902.4
2011-01-08,5805977.3,940699.1,26247.6
2011-01-09,12699011.8,1839686.3,49537.6
2011-01-10,12597020.1,1837114.5,49000.3
2011-01-11,11318934.9,1639956.5,44589.2
2011-01-12,12320931.9,1769744.2,46411.1
2011-01-13,5927459.8,929232.2,21369.9
2011-01-14,12714211.3,1843571.7,48784.0
2011-01-15,6240845.5,1005520.5,28235.8
2011-01-16,9124732.5,1392318.5,38037.1
2011-01-17,12204000.6,1808677.8,46150.4
2011-01-18,8847781.0,1347917.2,36630.6
2011-01-19,9615651.1,1444830.6,37228.7
2011-01-20,11416096.7,1673183.2,43693.1
2011-01-21,10749172.5,1589143.9,42510.8
2011-01-22,12099133.5,1740304.0,46330.7
2011-01-23,12044605.4,1727698.5,45886.4
2011-01-24,11661493.0,1665946.8,44272.5
2011-01-25,10661313.3,1555840.2,42312.6
2011-01-26,11491886.9,1651846.6,44070.7
2011-01-27,8019793.9,1219063.8,33170.2
2011-01-28,11199033.7,1593072.5,42125.5
2011-01-29,11278869.6,1594476.8,42110.1
2011-01-30,10501944.8,1511660.3,41168.2
2011-01-31,10576950.9,1474723.0,38586.7
2011-02-01,9514308.2,1346427.8,35249.4
2011-02-02,9183230.2,1317643.5,35256.7
2011-02-03,10354076.0,1473361.2,38194.9
2011-02-04,9110488.6,1319061.8,35879.0
2011-02-05,11026829.7,1550490.6,40288.6
2011-02-06,10852592.7,1528676.9,39413.5
2011-02-07,10562294.9,1519689.0,39642.2
2011-02-08,10548214.7,1485658.5,38793.7
2011-02-09,10554356.4,1495726.6,39263.7
2011-02-10,10257336.0,1421330.0,37206.8
2011-02-11,10259762.3,1428618.6,36554.8
2011-02-12,6123012.3,874530.6,22534.3
2011-02-13,10570074.9,1534202.2,39087.5
2011-02-14,10197505.7,1480942.5,38782.0
2011-02-15,10714347.4,1537472.7,39816.1
2011-02-16,10562195.9,1505425.5,38801.2
2011-02-17,8696109.2,1257999.6,33188.1
2011-02-18,10046049.0,1454484.5,36339.6
2011-02-19,10088393.9,1463500.2,36800.8
2011-02-20,7937689.0,1156259.9,29793.9
2011-02-21,7592180.3,1124338.0,28805.3
2011-02-22,1451957.5,281034.7,7744.6
2011-02-23,3367138.8,580261.6,15707.7
2011-02-24,8400144.9,1265836.1,31843.2
2011-02-25,9563218.6,1363154.6,34661.2
2011-02-26,8981626.1,1310652.8,34074.5
2011-02-27,8994087.1,1281996.5,32484.4
2011-02-28,9050675.1,1311341.4,31916.6
2011-03-01,7545026.6,1122965.0,28021.6
2011-03-02,7421104.7,1110578.4,27663.2
2011-03-03,9222041.6,1303140.8,32816.3
2011-03-04,9136487.1,1291057.5,32556.7
2011-03-05,8793806.4,1261972.9,30918.8
2011-03-06,8711223.0,1228515.5,30735.5
2011-03-07,7719064.2,1155121.2,27561.9
2011-03-08,8538892.8,1194169.7,29484.6
2011-03-09,8479618.3,1221307.9,29109.9
2011-03-10,7768310.9,1109973.8,26919.6
2011-03-11,5995527.7,878167.6,22298.0
2011-03-12,6310712.1,957741.2,21557.5
2011-03-13,7960673.8,1129420.8,25458.1
2011-03-14,5122205.6,808831.3,18307.4
2011-03-15,3234125.0,538991.3,11118.7
2011-03-16,6999612.0,990046.8,23290.0
2011-03-17,5713141.1,850273.4,15785.0
2011-03-18,7515038.1,1091974.4,23591.0
2011-03-19,5192643.6,812788.9,19094.0
2011-03-20,7508738.2,1072289.1,23854.9
2011-03-21,5255862.9,795612.9,16337.1
2011-03-22,7118412.0,1012916.1,20276.4
2011-03-23,7291097.2,1030061.5,21288.4
2011-03-24,6607303.6,953450.1,19829.2
2011-03-25,4383209.8,663074.6,14988.1
2011-03-26,6282920.1,923101.6,16740.0
2011-03-27,5864361.5,863940.6,15679.2
2011-03-28,6346831.5,928755.8,18083.3
2011-03-29,5072143.7,731448.4,15168.9
2011-03-30,4348771.3,674298.8,13774.8
2011-03-31,5282613.4,785316.1,14907.4
2011-04-01,6224517.1,871028.3,14316.4
2011-04-02,4402039.6,663761.8,10591.9
2011-04-03,5867891.3,842122.1,12856.1
2011-04-04,5583122.3,777708.5,12627.8
2011-04-05,5922075.5,813244.2,14411.2
2011-04-06,5894086.2,810469.9,14018.7
2011-04-10,5103319.3,718637.7,12728.6
2011-04-11,4664618.6,670469.6,12143.4
2011-04-12,2567537.2,403901.6,6572.9
2011-04-13,4669693.0,664266.9,10603.5
2011-04-14,3065022.3,470187.8,7101.3
2011-04-15,5251468.0,722158.3,10830.9
2011-04-16,4608854.7,668922.2,10221.1
2011-04-17,4968109.8,690351.4,10607.9
2011-04-18,4789113.4,684148.2,10820.3
2011-04-19,4812278.4,667601.5,10499.9
2011-04-20,4989286.8,694146.3,10454.1
2011-04-21,2941832.0,463491.2,6920.2
2011-04-22,4279775.8,609525.2,8005.9
2011-04-23,3568593.3,515038.8,7350.8
2011-04-24,4362770.5,599993.7,7995.6
2011-04-25,3805066.6,544837.5,7923.3
2011-04-26,4363379.4,609797.5,8601.9
2011-04-27,1632613.1,266854.2,3733.6
2011-04-28,4119645.7,558527.7,7729.9
2011-04-29,4062592.4,559924.9,7676.0
2011-04-30,3981840.9,532820.5,7148.9
2011-05-01,3990409.8,530335.9,6826.6
2011-05-02,3900570.5,518897.6,6895.4
2011-05-03,1440356.7,214682.9,2789.5
2011-05-04,3143033.2,440896.5,5666.5
2011-05-05,3418680.4,455354.5,5547.8
2011-05-06,3103528.4,440618.0,5732.1
2011-05-07,1286522.5,211444.5,3111.6
2011-05-08,2992396.9,414862.1,4720.1
2011-05-09,1740326.1,256743.3,2864.9
2011-05-10,1731639.3,280032.0,3480.7
2011-05-11,3162114.0,420202.0,4930.5
2011-05-12,2124221.5,311264.7,3553.3
2011-05-13,3045796.2,414930.6,5068.7
2011-05-14,3039589.2,416438.9,4995.3
2011-05-15,2961742.4,392627.1,6470.3
2011-05-17,2972070.0,382608.1,4471.8
2011-05-18,1054110.2,157982.5,2006.2
2011-05-19,707555.5,135341.8,1909.8
2011-05-20,2841055.7,387668.7,3874.4
2011-05-21,1749631.6,276819.3,2702.6
2011-05-22,2750704.7,371814.8,3582.3
2011-05-23,1024738.4,161643.9,1743.5
2011-05-24,1732783.9,280064.4,2981.5
2011-05-25,2663747.3,365739.0,3637.0
2011-05-27,2100860.5,323321.0,3277.5
2011-05-28,2546774.8,359044.3,3702.2
2011-05-29,2627779.3,367113.8,3670.9
2011-05-30,2571516.7,348802.4,3367.0
2011-05-31,2447417.1,338297.2,3094.1
2011-06-01,2207913.0,316405.3,3229.6
2011-06-02,2468722.5,348838.4,3263.2
2011-06-03,2501214.0,336218.7,3519.2
2011-06-04,1901099.6,288379.7,2727.7
2011-06-05,670517.1,75964.4,1024.1
2011-06-07,357794.3,50435.9,2111.6
2011-06-09,2147918.0,320226.8,565.7
2011-06-10,1244751.9,125199.7,4688.1
2011-06-11,1996711.4,188828.2,915.9
2011-06-12,1081245.6,212113.5,5275.9
2011-06-13,2301430.1,331452.3,6416.8
2011-06-28,1370390.4,222877.8,572.0
2011-06-29,1136377.3,192835.8,370.0
2011-07-01,1529695.4,271865.3,2892.4
2011-07-02,2020730.2,343512.1,3476.4
2011-07-03,2020735.0,217541.2,3135.1
2011-07-06,1803249.1,299060.9,1918.1
2011-07-08,1536634.7,246328.4,1316.9
2011-07-11,2161534.4,332348.3,3474.7
2011-10-01,1027392.5,150731.4,2919.7
2011-10-03,6466188.8,832024.1,15860.9
2011-10-04,6902405.9,880139.5,17231.6
2011-10-05,8145038.9,1018687.5,19308.6
2011-10-06,2666844.8,385668.0,8247.2
2011-10-10,8543279.8,1043601.0,21341.5
2011-10-11,9218540.7,1105252.8,21706.6
2011-10-12,2238819.3,331528.3,6539.7
2011-10-13,6044744.3,801454.4,15218.4
2011-10-14,7332406.0,949609.9,19646.8
2011-10-20,9826822.9,763925.3,12490.0
2011-10-24,12096752.9,1044048.3,15490.6
2011-10-25,13297681.9,1024616.1,17688.5
2011-10-27,12175778.0,1028519.5,15909.8
2011-10-29,11373661.5,950351.2,15352.3
2011-11-01,5397001.0,846093.5,17617.2
2011-11-02,9316204.2,1401256.2,31121.3
2011-11-03,11564865.9,1501455.6,35574.6
2011-11-04,11439152.0,1679654.8,33905.1
2011-11-05,11664528.6,1517864.1,35471.5
2011-11-06,13106030.6,1815639.9,41497.6
2011-11-07,10228815.7,1577134.1,33992.2
2011-11-08,7489460.9,1127094.8,26818.9
2011-11-09,6464101.3,1077164.1,23660.8
2011-11-10,11835239.4,1573288.6,37340.9
2011-11-11,11757324.2,1768964.4,38521.5
2011-11-14,12096917.5,1779813.3,38843.1
2011-11-15,12193895.8,1615966.7,39025.7
2011-11-16,12636948.6,1719114.7,41048.4
2011-11-17,11596851.8,1532860.7,37382.4
2011-11-18,10621097.7,1438670.8,37041.8
2011-11-19,13334900.5,1754117.3,43616.2
2011-11-20,11040102.6,1493165.4,38674.1
2011-11-21,7946793.8,1271645.9,31646.6
2011-11-22,6989173.6,1201854.6,28981.4
2011-11-23,9777724.9,1322430.4,33332.3
2011-11-24,9204995.3,1152916.4,27058.9
2011-11-25,11579203.0,1659823.6,35978.4
2011-11-26,12971729.0,1721118.8,42115.0
2011-11-27,11629169.9,1583676.5,39546.3
2011-11-28,13550829.4,1799309.7,43683.1
2011-11-29,9809327.1,1371719.7,33502.8
2011-11-30,13747894.7,1884559.6,44828.7
2011-12-01,12500303.4,1797748.8,49260.7
2011-12-02,11482876.8,1684179.8,44523.4
2011-12-03,7844002.5,1249271.0,34282.7
2011-12-04,12013210.2,1601228.9,46590.4
2011-12-05,12489157.9,1671084.2,48837.6
2011-12-06,12205513.1,1784468.3,49307.1
2011-12-07,13157198.1,1739659.3,50071.1
2011-12-08,12255695.8,1811168.2,48539.4
2011-12-09,10324011.7,1399418.1,41354.7
2011-12-10,9317610.6,1301022.3,38913.6
2011-12-11,8212798.5,1320916.2,36562.0
2011-12-12,12918227.8,1717678.7,50522.6
2011-12-13,13285041.1,1833226.8,50397.4
2011-12-14,11641261.7,1713637.0,48486.5
2011-12-15,12671949.5,1847809.4,49443.9
2011-12-16,13021038.3,1808155.6,50274.3
2011-12-17,12971988.4,1699943.4,50235.7
2011-12-20,12123048.1,1641472.3,51547.8
2011-12-21,8117241.6,1304581.7,36516.5
2011-12-27,12245993.5,1787750.4,52026.4
2011-12-28,12786709.2,1812970.6,50251.7
2011-12-29,10898039.4,1455955.7,43577.5
2011-12-30,10837291.0,1599678.7,48752.7
2011-12-31,12844737.7,1875427.1,52638.7
